QPF
0.00 0.00 0.00 0.00 0.00 0.00 0.00 0.00 0.00 0.00 0.00 0.00 0.00 0.00 0.00 0.00 0.00 0.00 0.00 0.00 0.00 0.00 0.00 0.00 0.00 0.00 0.00 0.00 0.00 0.00 0.00 0.00 0.00 0.00 0.00 0.00 0.00 0.00 0.00 0.01 0.01 0.01 0.01
0.00 0.00 0.00 0.00 0.00 0.00 0.00 0.00 0.00 0.00 0.00 0.00 0.00 0.00 0.00 0.00 0.00 0.00 0.00 0.00 0.00 0.00 0.00 0.00 0.00 0.00 0.00 0.00 0.00 0.00 0.00 0.00 0.00 0.00 0.00 0.00 0.00 0.00 0.00 0.00 0.00 0.01 0.01
0.00 0.00 0.00 0.00 0.00 0.00 0.00 0.00 0.00 0.00 0.00 0.00 0.00 0.00 0.00 0.00 0.00 0.00 0.00 0.00 0.00 0.00 0.00 0.00 0.00 0.00 0.00 0.00 0.00 0.00 0.00 0.00 0.00 0.00 0.00 0.00 0.00 0.00 0.00 0.00 0.01 0.01 0.01
0.00 0.00 0.00 0.00 0.00 0.00 0.00 0.00 0.00 0.00 0.00 0.00 0.00 0.00 0.00 0.00 0.00 0.00 0.00 0.00 0.00 0.00 0.00 0.00 0.00 0.00 0.00 0.00 0.00 0.00 0.00 0.00 0.00 0.00 0.00 0.00 0.00 0.00 0.00 0.01 0.01 0.01 0.01
0.00 0.00 0.00 0.00 0.00 0.00 0.00 0.00 0.00 0.00 0.00 0.00 0.00 0.00 0.00 0.00 0.00 0.00 0.00 0.00 0.00 0.00 0.00 0.00 0.00 0.00 0.00 0.00 0.00 0.00 0.00 0.00 0.00 0.00 0.00 0.00 0.00 0.00 0.00 0.01 0.01 0.01 0.01
0.00 0.00 0.00 0.00 0.00 0.00 0.00 0.00 0.00 0.00 0.00 0.00 0.00 0.00 0.00 0.00 0.00 0.00 0.00 0.00 0.00 0.00 0.00 0.00 0.00 0.00 0.00 0.00 0.00 0.00 0.00 0.00 0.00 0.00 0.00 0.00 0.00 0.00 0.01 0.01 0.01 0.01 0.01
0.01 0.01 0.01 0.01 0.01 0.01 0.00 0.00 0.00 0.00 0.00 0.00 0.00 0.00 0.00 0.00 0.00 0.00 0.00 0.00 0.00 0.00 0.00 0.00 0.00 0.00 0.00 0.00 0.00 0.00 0.00 0.00 0.00 0.00 0.00 0.00 0.00 0.01 0.01 0.01 0.02 0.02 0.02
0.01 0.01 0.01 0.01 0.01 0.01 0.00 0.00 0.00 0.00 0.00 0.00 0.00 0.00 0.00 0.00 0.00 0.00 0.00 0.00 0.00 0.00 0.00 0.00 0.00 0.00 0.00 0.00 0.00 0.00 0.00 0.00 0.00 0.00 0.00 0.00 0.01 0.01 0.01 0.02 0.02 0.02 0.02
0.01 0.00 0.01 0.01 0.01 0.00 0.00 0.00 0.00 0.00 0.00 0.00 0.00 0.00 0.00 0.00 0.00 0.00 0.00 0.00 0.00 0.00 0.00 0.00 0.00 0.00 0.00 0.00 0.00 0.00 0.00 0.00 0.00 0.00 0.00 0.00 0.01 0.01 0.01 0.02 0.02 0.02 0.02
0.00 0.00 0.01 0.00 0.00 0.00 0.00 0.00 0.00 0.00 0.00 0.00 0.00 0.00 0.00 0.00 0.00 0.00 0.00 0.00 0.00 0.00 0.00 0.00 0.00 0.00 0.00 0.00 0.00 0.00 0.00 0.00 0.00 0.00 0.00 0.00 0.00 0.01 0.01 0.01 0.02 0.02 0.02
0.00 0.00 0.00 0.00 0.00 0.00 0.00 0.00 0.00 0.00 0.00 0.00 0.00 0.00 0.00 0.00 0.00 0.00 0.00 0.00 0.00 0.00 0.00 0.00 0.00 0.00 0.00 0.00 0.00 0.00 0.00 0.00 0.00 0.00 0.00 0.00 0.00 0.00 0.01 0.01 0.01 0.01 0.01
0.00 0.00 0.00 0.00 0.00 0.00 0.00 0.00 0.00 0.00 0.00 0.00 0.00 0.00 0.00 0.00 0.00 0.00 0.00 0.00 0.00 0.00 0.00 0.00 0.00 0.00 0.00 0.00 0.00 0.00 0.00 0.00 0.00 0.00 0.00 0.00 0.00 0.00 0.01 0.01 0.01 0.01 0.02
0.00 0.00 0.00 0.00 0.00 0.00 0.00 0.00 0.00 0.00 0.00 0.00 0.00 0.00 0.00 0.00 0.00 0.00 0.00 0.00 0.00 0.00 0.00 0.00 0.00 0.00 0.00 0.00 0.00 0.00 0.00 0.00 0.00 0.00 0.00 0.00 0.00 0.00 0.00 0.01 0.01 0.01 0.02
0.00 0.00 0.00 0.00 0.00 0.00 0.00 0.00 0.00 0.00 0.00 0.00 0.00 0.00 0.00 0.00 0.00 0.00 0.00 0.00 0.00 0.00 0.00 0.00 0.00 0.00 0.00 0.00 0.00 0.00 0.00 0.00 0.00 0.00 0.00 0.00 0.00 0.00 0.00 0.01 0.01 0.01 0.02
0.00 0.00 0.00 0.00 0.00 0.00 0.00 0.00 0.00 0.00 0.00 0.00 0.00 0.00 0.00 0.00 0.00 0.00 0.00 0.00 0.00 0.00 0.00 0.00 0.00 0.00 0.00 0.00 0.00 0.00 0.00 0.00 0.00 0.00 0.00 0.00 0.00 0.00 0.01 0.01 0.01 0.01 0.02
0.00 0.00 0.01 0.00 0.00 0.00 0.00 0.00 0.01 0.01 0.01 0.01 0.01 0.01 0.01 0.00 0.00 0.00 0.00 0.00 0.00 0.00 0.00 0.00 0.00 0.00 0.00 0.00 0.00 0.00 0.00 0.00 0.00 0.00 0.00 0.00 0.00 0.00 0.01 0.01 0.01 0.01 0.01
0.00 0.00 0.00 0.00 0.00 0.00 0.00 0.00 0.01 0.01 0.01 0.01 0.01 0.01 0.00 0.00 0.00 0.00 0.00 0.00 0.00 0.00 0.00 0.00 0.00 0.00 0.00 0.00 0.00 0.00 0.00 0.00 0.00 0.00 0.00 0.00 0.00 0.01 0.01 0.01 0.01 0.01 0.02
0.00 0.00 0.00 0.00 0.00 0.00 0.00 0.01 0.00 0.00 0.01 0.00 0.00 0.00 0.00 0.00 0.00 0.00 0.00 0.00 0.00 0.00 0.00 0.00 0.00 0.00 0.00 0.00 0.00 0.00 0.00 0.00 0.00 0.00 0.00 0.00 0.00 0.01 0.01 0.01 0.01 0.02 0.02
0.00 0.00 0.00 0.00 0.00 0.00 0.00 0.01 0.00 0.00 0.00 0.00 0.00 0.00 0.00 0.00 0.00 0.00 0.00 0.00 0.00 0.00 0.00 0.00 0.00 0.00 0.00 0.00 0.00 0.00 0.00 0.00 0.00 0.00 0.00 0.00 0.00 0.00 0.01 0.01 0.01 0.01 0.02
0.00 0.00 0.00 0.00 0.00 0.00 0.00 0.00 0.00 0.00 0.00 0.00 0.00 0.00 0.00 0.00 0.00 0.00 0.00 0.00 0.00 0.00 0.00 0.00 0.00 0.00 0.00 0.00 0.00 0.00 0.00 0.00 0.00 0.00 0.00 0.00 0.00 0.00 0.00 0.00 0.01 0.01 0.01
0.00 0.00 0.00 0.01 0.01 0.00 0.00 0.00 0.00 0.00 0.00 0.00 0.00 0.00 0.00 0.00 0.00 0.00 0.00 0.00 0.00 0.00 0.00 0.00 0.00 0.00 0.00 0.00 0.00 0.00 0.00 0.00 0.00 0.00 0.00 0.00 0.00 0.00 0.00 0.00 0.00 0.00 0.01
0.00 0.00 0.00 0.01 0.01 0.00 0.00 0.00 0.00 0.00 0.00 0.00 0.00 0.00 0.00 0.00 0.00 0.00 0.00 0.00 0.00 0.00 0.00 0.01 0.01 0.01 0.00 0.00 0.00 0.00 0.01 0.01 0.01 0.00 0.00 0.00 0.00 0.00 0.00 0.00 0.00 0.00 0.01
0.00 0.00 0.00 0.00 0.00 0.00 0.00 0.00 0.00 0.00 0.00 0.00 0.00 0.00 0.00 0.00 0.00 0.00 0.01 0.01 0.01 0.01 0.00 0.01 0.01 0.00 0.00 0.01 0.01 0.01 0.01 0.02 0.02 0.01 0.01 0.01 0.00 0.00 0.00 0.00 0.00 0.00 0.01
0.00 0.00 0.00 0.00 0.00 0.00 0.00 0.00 0.00 0.00 0.00 0.00 0.00 0.00 0.00 0.00 0.01 0.01 0.01 0.00 0.00 0.00 0.00 0.00 0.00 0.00 0.01 0.01 0.02 0.02 0.03 0.03 0.02 0.01 0.01 0.02 0.00 0.00 0.00 0.00 0.00 0.00 0.01
0.00 0.00 0.00 0.00 0.00 0.00 0.00 0.00 0.00 0.00 0.00 0.01 0.01 0.01 0.01 0.01 0.01 0.01 0.01 0.00 0.00 0.00 0.00 0.00 0.01 0.01 0.01 0.01 0.02 0.02 0.02 0.02 0.02 0.01 0.01 0.02 0.01 0.00 0.00 0.00 0.00 0.00 0.00
0.00 0.00 0.00 0.00 0.00 0.00 0.00 0.00 0.00 0.00 0.00 0.00 0.00 0.00 0.00 0.00 0.00 0.01 0.01 0.01 0.01 0.00 0.00 0.00 0.00 0.00 0.00 0.00 0.00 0.01 0.01 0.02 0.02 0.02 0.01 0.01 0.01 0.01 0.01 0.00 0.00 0.00 0.00
MSLP
1021.85 1022.03 1022.15 1022.22 1022.25 1022.28 1022.32 1022.38 1022.46 1022.55 1022.63 1022.67 1022.67 1022.62 1022.51 1022.36 1022.17 1021.96 1021.76 1021.58 1021.42 1021.29 1021.18 1021.09 1021.01 1020.93 1020.84 1020.74 1020.62 1020.50 1020.38 1020.27 1020.16 1020.06 1019.96 1019.86 1019.74 1019.60 1019.43 1019.22 1018.98 1018.72 1018.46
1021.65 1021.87 1022.04 1022.16 1022.25 1022.33 1022.42 1022.52 1022.62 1022.73 1022.82 1022.87 1022.87 1022.82 1022.71 1022.55 1022.37 1022.17 1021.98 1021.81 1021.67 1021.56 1021.48 1021.40 1021.33 1021.24 1021.12 1020.99 1020.84 1020.68 1020.52 1020.38 1020.27 1020.17 1020.10 1020.02 1019.94 1019.82 1019.67 1019.46 1019.21 1018.93 1018.63
1021.41 1021.67 1021.90 1022.08 1022.25 1022.40 1022.54 1022.68 1022.81 1022.93 1023.03 1023.08 1023.08 1023.03 1022.93 1022.78 1022.61 1022.43 1022.25 1022.11 1021.99 1021.90 1021.83 1021.77 1021.69 1021.59 1021.46 1021.29 1021.10 1020.90 1020.71 1020.54 1020.40 1020.29 1020.21 1020.15 1020.07 1019.97 1019.82 1019.62 1019.36 1019.07 1018.75
1021.16 1021.47 1021.76 1022.02 1022.27 1022.49 1022.69 1022.87 1023.03 1023.16 1023.26 1023.31 1023.31 1023.27 1023.17 1023.04 1022.89 1022.73 1022.58 1022.46 1022.36 1022.29 1022.23 1022.17 1022.09 1021.99 1021.84 1021.65 1021.43 1021.19 1020.96 1020.74 1020.57 1020.43 1020.32 1020.23 1020.14 1020.02 1019.87 1019.66 1019.40 1019.10 1018.78
1020.91 1021.26 1021.62 1021.97 1022.29 1022.58 1022.84 1023.07 1023.25 1023.39 1023.48 1023.54 1023.54 1023.51 1023.43 1023.32 1023.20 1023.07 1022.94 1022.84 1022.76 1022.69 1022.64 1022.58 1022.50 1022.38 1022.23 1022.02 1021.78 1021.52 1021.25 1021.00 1020.77 1020.58 1020.42 1020.28 1020.15 1019.99 1019.82 1019.60 1019.33 1019.04 1018.72
1020.66 1021.07 1021.49 1021.90 1022.30 1022.66 1022.97 1023.23 1023.43 1023.58 1023.68 1023.74 1023.76 1023.74 1023.69 1023.61 1023.52 1023.41 1023.32 1023.22 1023.14 1023.07 1023.01 1022.94 1022.86 1022.74 1022.58 1022.38 1022.14 1021.86 1021.57 1021.28 1021.00 1020.75 1020.52 1020.32 1020.12 1019.92 1019.71 1019.47 1019.20 1018.90 1018.60
1020.43 1020.87 1021.34 1021.82 1022.27 1022.68 1023.03 1023.32 1023.54 1023.70 1023.81 1023.89 1023.92 1023.94 1023.92 1023.88 1023.83 1023.76 1023.67 1023.58 1023.49 1023.40 1023.32 1023.23 1023.13 1023.01 1022.86 1022.67 1022.43 1022.16 1021.87 1021.55 1021.23 1020.92 1020.63 1020.35 1020.09 1019.83 1019.58 1019.31 1019.04 1018.75 1018.46
1020.19 1020.67 1021.17 1021.68 1022.17 1022.62 1023.00 1023.31 1023.55 1023.73 1023.86 1023.96 1024.04 1024.09 1024.12 1024.13 1024.11 1024.07 1023.99 1023.89 1023.77 1023.65 1023.53 1023.41 1023.29 1023.16 1023.02 1022.85 1022.64 1022.39 1022.10 1021.78 1021.44 1021.09 1020.74 1020.40 1020.08 1019.77 1019.47 1019.18 1018.90 1018.63 1018.35
1019.94 1020.43 1020.96 1021.49 1022.00 1022.47 1022.87 1023.20 1023.46 1023.66 1023.82 1023.96 1024.08 1024.19 1024.28 1024.34 1024.36 1024.33 1024.26 1024.14 1023.99 1023.82 1023.65 1023.48 1023.34 1023.20 1023.06 1022.90 1022.72 1022.50 1022.24 1021.94 1021.59 1021.22 1020.84 1020.46 1020.09 1019.74 1019.42 1019.11 1018.82 1018.55 1018.28
1019.65 1020.15 1020.69 1021.23 1021.76 1022.24 1022.65 1022.99 1023.28 1023.51 1023.71 1023.89 1024.07 1024.24 1024.39 1024.50 1024.56 1024.56 1024.47 1024.33 1024.14 1023.92 1023.69 1023.48 1023.29 1023.13 1022.98 1022.84 1022.69 1022.51 1022.28 1022.00 1021.67 1021.30 1020.91 1020.51 1020.12 1019.75 1019.40 1019.08 1018.79 1018.52 1018.25
1019.31 1019.82 1020.37 1020.92 1021.45 1021.94 1022.36 1022.72 1023.02 1023.29 1023.53 1023.77 1024.01 1024.24 1024.45 1024.61 1024.71 1024.72 1024.64 1024.47 1024.24 1023.97 1023.69 1023.42 1023.19 1023.00 1022.85 1022.71 1022.57 1022.41 1022.21 1021.96 1021.66 1021.31 1020.93 1020.53 1020.14 1019.76 1019.40 1019.07 1018.77 1018.48 1018.21
1018.90 1019.43 1019.99 1020.55 1021.09 1021.58 1022.02 1022.39 1022.72 1023.02 1023.31 1023.59 1023.89 1024.18 1024.44 1024.65 1024.79 1024.82 1024.74 1024.56 1024.31 1024.00 1023.67 1023.37 1023.10 1022.87 1022.69 1022.55 1022.41 1022.25 1022.07 1021.84 1021.55 1021.22 1020.86 1020.48 1020.09 1019.72 1019.36 1019.02 1018.71 1018.41 1018.11
1018.43 1018.98 1019.55 1020.12 1020.67 1021.18 1021.62 1022.02 1022.37 1022.71 1023.03 1023.37 1023.71 1024.05 1024.36 1024.61 1024.77 1024.83 1024.76 1024.59 1024.33 1024.01 1023.66 1023.32 1023.02 1022.77 1022.56 1022.38 1022.22 1022.05 1021.85 1021.62 1021.35 1021.03 1020.68 1020.32 1019.95 1019.58 1019.23 1018.88 1018.55 1018.23 1017.90
1017.88 1018.45 1019.04 1019.63 1020.19 1020.71 1021.17 1021.59 1021.97 1022.33 1022.70 1023.07 1023.45 1023.82 1024.17 1024.45 1024.65 1024.73 1024.69 1024.54 1024.29 1023.98 1023.64 1023.30 1022.98 1022.69 1022.45 1022.23 1022.02 1021.81 1021.58 1021.32 1021.03 1020.72 1020.38 1020.03 1019.67 1019.32 1018.97 1018.62 1018.27 1017.92 1017.56
1017.25 1017.85 1018.46 1019.06 1019.63 1020.16 1020.65 1021.08 1021.49 1021.88 1022.28 1022.68 1023.08 1023.48 1023.85 1024.16 1024.38 1024.49 1024.49 1024.38 1024.17 1023.90 1023.59 1023.26 1022.94 1022.63 1022.35 1022.08 1021.81 1021.53 1021.24 1020.94 1020.62 1020.28 1019.94 1019.59 1019.25 1018.91 1018.57 1018.21 1017.85 1017.47 1017.08
1016.57 1017.18 1017.79 1018.40 1018.98 1019.53 1020.02 1020.48 1020.91 1021.33 1021.75 1022.17 1022.60 1023.01 1023.40 1023.72 1023.96 1024.11 1024.14 1024.08 1023.93 1023.71 1023.45 1023.15 1022.85 1022.53 1022.22 1021.89 1021.55 1021.20 1020.84 1020.47 1020.10 1019.73 1019.38 1019.03 1018.70 1018.38 1018.04 1017.69 1017.32 1016.93 1016.51
1015.87 1016.46 1017.07 1017.67 1018.25 1018.79 1019.30 1019.77 1020.22 1020.67 1021.11 1021.55 1021.99 1022.42 1022.80 1023.14 1023.39 1023.56 1023.64 1023.62 1023.53 1023.38 1023.17 1022.92 1022.65 1022.34 1022.00 1021.63 1021.23 1020.80 1020.37 1019.93 1019.50 1019.10 1018.72 1018.38 1018.06 1017.75 1017.43 1017.09 1016.72 1016.32 1015.88
1015.17 1015.74 1016.32 1016.89 1017.45 1017.99 1018.50 1018.98 1019.45 1019.92 1020.38 1020.84 1021.29 1021.72 1022.11 1022.44 1022.70 1022.88 1022.98 1023.00 1022.97 1022.87 1022.73 1022.53 1022.29 1022.00 1021.65 1021.25 1020.80 1020.32 1019.82 1019.32 1018.85 1018.41 1018.02 1017.68 1017.37 1017.07 1016.77 1016.45 1016.09 1015.69 1015.25
1014.52 1015.05 1015.59 1016.12 1016.65 1017.16 1017.66 1018.16 1018.64 1019.13 1019.61 1020.09 1020.54 1020.97 1021.35 1021.66 1021.91 1022.09 1022.20 1022.25 1022.24 1022.20 1022.10 1021.96 1021.75 1021.49 1021.15 1020.74 1020.27 1019.75 1019.21 1018.68 1018.17 1017.72 1017.32 1016.98 1016.67 1016.40 1016.12 1015.81 1015.47 1015.08 1014.65
1013.96 1014.44 1014.92 1015.41 1015.90 1016.38 1016.86 1017.35 1017.84 1018.35 1018.84 1019.33 1019.79 1020.21 1020.57 1020.86 1021.08 1021.23 1021.33 1021.38 1021.39 1021.37 1021.31 1021.20 1021.04 1020.81 1020.50 1020.11 1019.64 1019.12 1018.57 1018.02 1017.51 1017.04 1016.64 1016.31 1016.01 1015.75 1015.48 1015.19 1014.86 1014.48 1014.06
1013.53 1013.95 1014.39 1014.82 1015.25 1015.70 1016.16 1016.63 1017.12 1017.63 1018.13 1018.62 1019.08 1019.47 1019.81 1020.07 1020.25 1020.36 1020.43 1020.45 1020.45 1020.43 1020.39 1020.32 1020.19 1020.00 1019.73 1019.37 1018.94 1018.44 1017.92 1017.38 1016.88 1016.42 1016.03 1015.69 1015.40 1015.14 1014.88 1014.60 1014.27 1013.90 1013.50
1013.23 1013.61 1013.99 1014.38 1014.76 1015.16 1015.58 1016.03 1016.51 1017.00 1017.50 1017.98 1018.42 1018.80 1019.09 1019.31 1019.44 1019.50 1019.52 1019.50 1019.47 1019.44 1019.40 1019.34 1019.25 1019.10 1018.88 1018.58 1018.20 1017.76 1017.27 1016.78 1016.30 1015.86 1015.47 1015.14 1014.84 1014.57 1014.30 1014.01 1013.69 1013.32 1012.92
1013.06 1013.42 1013.76 1014.10 1014.44 1014.79 1015.17 1015.58 1016.02 1016.49 1016.97 1017.42 1017.83 1018.17 1018.43 1018.59 1018.67 1018.67 1018.64 1018.57 1018.51 1018.45 1018.40 1018.35 1018.29 1018.18 1018.01 1017.77 1017.46 1017.08 1016.66 1016.21 1015.77 1015.35 1014.97 1014.63 1014.32 1014.03 1013.74 1013.43 1013.10 1012.73 1012.34
1013.01 1013.35 1013.67 1013.97 1014.26 1014.56 1014.88 1015.25 1015.64 1016.07 1016.50 1016.92 1017.29 1017.59 1017.80 1017.92 1017.94 1017.90 1017.80 1017.69 1017.59 1017.50 1017.44 1017.40 1017.35 1017.29 1017.17 1017.00 1016.75 1016.44 1016.08 1015.68 1015.28 1014.88 1014.50 1014.15 1013.82 1013.51 1013.19 1012.86 1012.51 1012.14 1011.75
1013.03 1013.37 1013.67 1013.93 1014.18 1014.43 1014.70 1014.99 1015.33 1015.70 1016.08 1016.45 1016.77 1017.03 1017.20 1017.27 1017.25 1017.16 1017.03 1016.89 1016.76 1016.65 1016.58 1016.54 1016.51 1016.47 1016.40 1016.28 1016.09 1015.84 1015.53 1015.18 1014.81 1014.43 1014.06 1013.69 1013.35 1013.00 1012.66 1012.31 1011.95 1011.57 1011.19
1013.08 1013.42 1013.70 1013.94 1014.14 1014.33 1014.54 1014.77 1015.04 1015.35 1015.67 1015.98 1016.26 1016.47 1016.60 1016.64 1016.60 1016.49 1016.35 1016.18 1016.04 1015.92 1015.85 1015.81 1015.79 1015.77 1015.73 1015.64 1015.50 1015.29 1015.02 1014.71 1014.36 1013.99 1013.62 1013.25 1012.89 1012.53 1012.16 1011.80 1011.43 1011.06 1010.69
Thickness
5655 5651 5648 5645 5642 5640 5637 5633 5631 5628 5626 5624 5622 5620 5618 5616 5614 5612 5610 5609 5607 5606 5605 5604 5602 5600 5599 5597 5596 5594 5593 5592 5591 5590 5590 5589 5589 5589 5589 5590 5590 5591 5592
5651 5647 5643 5640 5637 5634 5631 5627 5624 5622 5619 5617 5615 5613 5611 5609 5607 5605 5603 5601 5599 5597 5596 5595 5593 5591 5590 5588 5586 5585 5583 5582 5581 5580 5580 5579 5579 5579 5579 5580 5580 5581 5582
5647 5643 5639 5635 5632 5628 5625 5621 5618 5615 5612 5610 5608 5606 5604 5602 5600 5598 5595 5593 5591 5589 5587 5585 5583 5581 5580 5578 5577 5575 5573 5572 5571 5571 5570 5570 5569 5569 5569 5570 5570 5571 5572
5644 5639 5634 5631 5627 5623 5619 5615 5611 5608 5605 5602 5600 5598 5596 5594 5592 5590 5588 5585 5583 5580 5578 5575 5573 5571 5569 5568 5567 5565 5564 5563 5562 5561 5560 5560 5559 5559 5559 5559 5560 5560 5561
5640 5635 5631 5626 5622 5617 5613 5609 5604 5601 5598 5595 5592 5590 5588 5586 5584 5582 5580 5577 5574 5571 5568 5566 5563 5561 5559 5557 5556 5555 5554 5553 5552 5551 5551 5550 5550 5549 5549 5549 5550 5551 5551
5637 5632 5627 5622 5617 5611 5607 5602 5598 5594 5590 5587 5585 5582 5579 5577 5576 5573 5571 5568 5565 5562 5559 5556 5554 5551 5549 5547 5545 5544 5543 5543 5542 5541 5541 5540 5540 5540 5540 5540 5540 5541 5542
5634 5628 5622 5617 5612 5607 5602 5597 5592 5587 5582 5578 5576 5573 5571 5569 5567 5564 5562 5559 5556 5553 5550 5547 5544 5542 5539 5537 5535 5533 5533 5532 5532 5532 5531 5530 5530 5530 5530 5530 5531 5531 5532
5630 5625 5619 5613 5608 5602 5596 5591 5586 5580 5575 5571 5567 5564 5561 5559 5558 5556 5553 5550 5547 5544 5541 5538 5535 5533 5530 5528 5525 5523 5522 5521 5521 5521 5521 5520 5520 5520 5520 5520 5521 5521 5522
5627 5621 5616 5610 5604 5598 5592 5587 5581 5576 5569 5563 5559 5556 5552 5550 5546 5547 5544 5541 5538 5535 5532 5529 5526 5524 5521 5518 5516 5513 5511 5511 5510 5510 5510 5509 5509 5509 5509 5509 5510 5510 5510
5623 5617 5612 5606 5600 5594 5588 5582 5577 5571 5565 5558 5552 5547 5544 5540 5536 5535 5535 5532 5530 5526 5523 5521 5517 5515 5512 5509 5506 5503 5501 5500 5499 5499 5498 5498 5497 5497 5497 5497 5498 5498 5498
5619 5613 5608 5602 5595 5590 5584 5578 5572 5566 5560 5554 5548 5541 5535 5529 5526 5523 5523 5522 5520 5518 5515 5512 5509 5505 5502 5499 5496 5493 5491 5489 5488 5487 5486 5485 5485 5485 5485 5485 5485 5485 5486
5614 5608 5603 5597 5591 5585 5580 5574 5567 5561 5555 5550 5544 5537 5532 5525 5519 5514 5512 5510 5508 5508 5506 5503 5500 5496 5492 5489 5485 5482 5480 5478 5476 5475 5474 5473 5472 5472 5472 5472 5472 5472 5473
5609 5604 5599 5593 5587 5582 5576 5569 5562 5556 5550 5544 5538 5533 5527 5522 5516 5510 5504 5501 5497 5497 5496 5495 5492 5487 5483 5479 5475 5472 5469 5467 5465 5464 5462 5461 5460 5459 5458 5458 5458 5458 5458
5609 5603 5596 5589 5583 5577 5571 5564 5558 5551 5545 5539 5533 5527 5521 5516 5510 5504 5498 5491 5487 5485 5484 5484 5482 5478 5473 5469 5465 5462 5459 5456 5454 5452 5450 5448 5447 5446 5444 5444 5443 5443 5443
5604 5597 5591 5584 5577 5571 5565 5559 5552 5546 5539 5534 5527 5521 5515 5509 5503 5497 5491 5485 5477 5474 5475 5474 5470 5468 5462 5458 5454 5451 5448 5444 5442 5439 5437 5435 5433 5431 5429 5428 5427 5426 5426
5599 5592 5585 5578 5572 5565 5559 5553 5546 5540 5534 5528 5521 5515 5509 5503 5497 5490 5484 5477 5471 5465 5462 5463 5459 5455 5451 5447 5442 5439 5436 5432 5429 5426 5423 5421 5418 5416 5414 5412 5410 5409 5408
5593 5587 5580 5573 5566 5560 5554 5547 5541 5534 5528 5521 5515 5509 5503 5496 5489 5483 5476 5469 5463 5456 5453 5455 5449 5445 5439 5435 5431 5426 5422 5418 5414 5411 5408 5405 5403 5400 5398 5395 5393 5392 5390
5587 5581 5575 5568 5561 5555 5548 5542 5536 5529 5522 5515 5509 5502 5496 5489 5482 5475 5468 5461 5455 5448 5443 5442 5439 5433 5428 5424 5419 5414 5409 5404 5400 5396 5393 5390 5387 5384 5381 5378 5376 5374 5372
5581 5575 5569 5562 5556 5550 5543 5537 5530 5523 5517 5510 5503 5496 5490 5482 5475 5468 5461 5454 5447 5441 5434 5429 5427 5421 5417 5411 5406 5401 5396 5390 5385 5381 5377 5374 5370 5367 5363 5360 5358 5356 5354
5574 5568 5562 5557 5550 5544 5537 5531 5524 5517 5510 5503 5497 5490 5483 5476 5469 5462 5454 5447 5439 5432 5424 5418 5414 5409 5403 5398 5390 5385 5382 5376 5371 5366 5362 5358 5354 5350 5346 5343 5341 5339 5337
5568 5562 5556 5549 5543 5537 5531 5524 5518 5510 5503 5496 5489 5482 5476 5469 5463 5455 5447 5439 5431 5423 5415 5408 5403 5397 5391 5383 5376 5371 5367 5363 5357 5351 5347 5343 5338 5335 5330 5326 5324 5322 5321
5560 5554 5548 5542 5536 5531 5525 5519 5511 5503 5496 5488 5481 5474 5468 5461 5454 5448 5441 5433 5425 5415 5406 5398 5391 5384 5378 5371 5364 5357 5350 5345 5343 5339 5332 5330 5324 5320 5316 5313 5310 5309 5307
5552 5546 5540 5535 5529 5524 5518 5512 5505 5496 5488 5481 5474 5466 5459 5452 5445 5438 5431 5423 5415 5406 5399 5389 5380 5373 5366 5360 5352 5344 5336 5330 5326 5323 5316 5316 5311 5307 5304 5300 5298 5296 5295
5544 5538 5532 5527 5521 5515 5510 5504 5497 5488 5480 5473 5465 5458 5450 5443 5435 5428 5421 5412 5403 5395 5387 5379 5371 5364 5356 5348 5339 5332 5325 5320 5316 5309 5302 5301 5300 5295 5293 5289 5286 5284 5282
5535 5529 5524 5518 5511 5506 5501 5495 5488 5479 5471 5463 5456 5449 5441 5433 5428 5421 5412 5403 5394 5385 5376 5368 5360 5352 5345 5337 5328 5320 5313 5307 5304 5300 5293 5287 5287 5283 5281 5278 5274 5271 5270
5527 5520 5514 5508 5502 5496 5492 5486 5480 5471 5462 5454 5446 5439 5432 5425 5418 5410 5400 5391 5382 5375 5366 5357 5348 5340 5332 5324 5316 5308 5300 5294 5290 5287 5284 5277 5274 5269 5270 5269 5265 5261 5259